| time (UTC) | temp F | wind direction | speed knots | gust knots | rain 1hr in | rain 24hr in | rain mn in | humidity % | barometer mb |
| 20260905111602 | 76 | 148 | 0.0 | 2.6 | 0.00 | 0.14 | 0.00 | 90 | 1013.1 |
| 20260905104603 | 76 | 148 | 0.0 | 0.0 | 0.00 | 0.14 | 0.00 | 90 | 1012.8 |
| 20260905103102 | 76 | 148 | 0.0 | 0.0 | 0.00 | 0.14 | 0.00 | 90 | 1012.8 |
| 20260905101602 | 77 | 148 | 0.0 | 0.0 | 0.00 | 0.14 | 0.00 | 90 | 1012.8 |
| 20260905095311 | 77 | 148 | 0.0 | 1.7 | 0.00 | 0.14 | 0.00 | 90 | 1012.8 |
| 20260905093753 | 77 | 148 | 0.0 | 0.0 | 0.00 | 0.14 | 0.00 | 90 | 1012.7 |
| 20260905091602 | 77 | 148 | 0.0 | 0.0 | 0.00 | 0.14 | 0.00 | 90 | 1012.8 |
| 20260905084602 | 77 | 148 | 0.0 | 0.0 | 0.00 | 0.14 | 0.00 | 89 | 1012.7 |
| 20260905083103 | 77 | 148 | 0.0 | 1.7 | 0.00 | 0.14 | 0.00 | 89 | 1012.7 |
| 20260905081603 | 77 | 148 | 0.9 | 1.7 | 0.00 | 0.15 | 0.00 | 89 | 1012.7 |
| 20260905080809 | 77 | 148 | 0.0 | 0.0 | 0.00 | 0.15 | 0.00 | 89 | 1012.6 |
| 20260905075255 | 78 | 148 | 0.0 | 1.7 | 0.00 | 0.16 | 0.00 | 89 | 1012.8 |
| 20260905073103 | 78 | 148 | 0.0 | 1.7 | 0.00 | 0.17 | 0.00 | 88 | 1012.9 |
| 20260905071602 | 78 | 148 | 0.0 | 0.0 | 0.00 | 0.17 | 0.00 | 88 | 1012.9 |
| 20260905071512 | 78 | 148 | 0.0 | 0.0 | 0.00 | 0.17 | 0.00 | 88 | 1013.1 |
| 20260905065948 | 78 | 148 | 0.0 | 0.0 | 0.00 | 0.17 | 0.00 | 87 | 1013.3 |
| 20260905063102 | 78 | 148 | 0.0 | 1.7 | 0.00 | 0.17 | 0.00 | 87 | 1013.3 |
| 20260905061603 | 78 | 148 | 0.0 | 0.0 | 0.00 | 0.17 | 0.00 | 87 | 1013.4 |
| 20260905054602 | 79 | 148 | 0.0 | 0.0 | 0.00 | 0.17 | 0.00 | 86 | 1013.3 |
| 20260905053102 | 79 | 148 | 0.0 | 0.0 | 0.00 | 0.17 | 0.00 | 86 | 1013.5 |
| 20260905051602 | 79 | 148 | 0.0 | 2.6 | 0.00 | 0.17 | 0.00 | 87 | 1013.4 |
| 20260905044602 | 79 | 148 | 0.0 | 0.0 | 0.00 | 0.17 | 0.17 | 87 | 1013.3 |
| 20260905043102 | 79 | 148 | 0.0 | 1.7 | 0.00 | 0.17 | 0.17 | 86 | 1013.3 |
| 20260905041602 | 80 | 148 | 0.0 | 1.7 | 0.00 | 0.17 | 0.17 | 86 | 1013.5 |
| 20260905034602 | 80 | 148 | 0.0 | 1.7 | 0.00 | 0.17 | 0.17 | 84 | 1013.5 |
| 20260905033102 | 80 | 148 | 0.0 | 0.0 | 0.00 | 0.17 | 0.17 | 83 | 1013.6 |
| 20260905031602 | 81 | 148 | 0.0 | 1.7 | 0.00 | 0.17 | 0.17 | 82 | 1013.5 |
| 20260905024602 | 81 | 148 | 0.0 | 0.0 | 0.00 | 0.17 | 0.17 | 82 | 1013.6 |
| 20260905023049 | 81 | 148 | 0.0 | 1.7 | 0.00 | 0.17 | 0.17 | 82 | 1013.4 |
| 20260905021545 | 82 | 148 | 0.0 | 4.3 | 0.00 | 0.17 | 0.17 | 82 | 1013.4 |
| 20260905020732 | 81 | 145 | 0.0 | 1.7 | 0.00 | 0.17 | 0.17 | 81 | 1013.2 |
| 20260905014541 | 82 | 145 | 0.0 | 1.7 | 0.00 | 0.17 | 0.17 | 81 | 1012.9 |
| 20260905013038 | 82 | 145 | 0.0 | 0.0 | 0.00 | 0.17 | 0.17 | 80 | 1012.7 |
| 20260905012234 | 83 | 145 | 0.0 | 0.0 | 0.00 | 0.17 | 0.17 | 79 | 1012.5 |
| 20260905010035 | 83 | 145 | 0.0 | 0.0 | 0.00 | 0.17 | 0.17 | 76 | 1012.5 |
| 20260905005225 | 84 | 145 | 0.0 | 0.0 | 0.00 | 0.17 | 0.17 | 75 | 1012.4 |
| 20260905003032 | 85 | 145 | 0.0 | 1.7 | 0.00 | 0.17 | 0.17 | 73 | 1012.2 |
| 20260905001532 | 85 | 145 | 0.0 | 1.7 | 0.00 | 0.17 | 0.17 | 72 | 1012.3 |
| 20260905000031 | 86 | 145 | 0.0 | 6.1 | 0.00 | 0.17 | 0.17 | 70 | 1012.2 |
| 20260904234531 | 87 | 148 | 2.6 | 6.1 | 0.00 | 0.17 | 0.17 | 69 | 1012.1 |
| 20260904233032 | 87 | 149 | 2.6 | 6.1 | 0.00 | 0.17 | 0.17 | 68 | 1012.2 |
| 20260904232921 | 87 | 164 | 2.6 | 6.1 | 0.00 | 0.17 | 0.17 | 69 | 1012.4 |
| 20260904230029 | 86 | 161 | 2.6 | 9.6 | 0.00 | 0.17 | 0.17 | 70 | 1012.4 |
| 20260904224528 | 86 | 144 | 3.5 | 12.2 | 0.00 | 0.17 | 0.17 | 71 | 1012.4 |
| 20260904223025 | 87 | 190 | 7.0 | 13.9 | 0.00 | 0.17 | 0.17 | 69 | 1012.5 |
| 20260904221525 | 87 | 240 | 0.0 | 4.3 | 0.00 | 0.17 | 0.17 | 68 | 1012.3 |
| 20260904220022 | 88 | 243 | 0.0 | 1.7 | 0.00 | 0.17 | 0.17 | 66 | 1012.5 |
| 20260904214519 | 88 | 243 | 0.0 | 4.3 | 0.00 | 0.17 | 0.17 | 66 | 1012.4 |
| 20260904213017 | 88 | 244 | 0.9 | 2.6 | 0.00 | 0.17 | 0.17 | 68 | 1012.5 |
| 20260904211515 | 89 | 245 | 0.0 | 7.8 | 0.00 | 0.17 | 0.17 | 64 | 1012.6 |
| 20260904210714 | 89 | 149 | 2.6 | 9.6 | 0.00 | 0.17 | 0.17 | 66 | 1012.8 |
| 20260904204511 | 89 | 159 | 0.9 | 6.1 | 0.00 | 0.18 | 0.17 | 65 | 1013.1 |
| 20260904203009 | 90 | 183 | 3.5 | 6.1 | 0.00 | 0.19 | 0.17 | 66 | 1013.4 |
| 20260904201507 | 89 | 200 | 2.6 | 4.3 | 0.00 | 0.20 | 0.17 | 71 | 1013.6 |
| 20260904200005 | 87 | 221 | 0.9 | 6.1 | 0.00 | 0.22 | 0.17 | 71 | 1013.6 |
| 20260904194503 | 86 | 180 | 1.7 | 6.1 | 0.00 | 0.26 | 0.17 | 73 | 1013.7 |
| 20260904193003 | 85 | 265 | 1.7 | 7.8 | 0.05 | 0.30 | 0.17 | 76 | 1013.9 |
| 20260904192207 | 83 | 269 | 4.3 | 7.8 | 0.14 | 0.33 | 0.17 | 80 | 1014.1 |
| 20260904190002 | 82 | 175 | 2.6 | 6.1 | 0.14 | 0.22 | 0.17 | 85 | 1014.3 |
| 20260904184503 | 78 | 161 | 0.0 | 6.1 | 0.14 | 0.24 | 0.17 | 87 | 1014.8 |
| 20260904183003 | 78 | 228 | 0.9 | 7.8 | 0.09 | 0.24 | 0.12 | 80 | 1015.5 |
| 20260904181503 | 85 | 241 | 2.6 | 13.9 | 0.00 | 0.25 | 0.03 | 65 | 1015.2 |
| 20260904180004 | 87 | 228 | 1.7 | 7.8 | 0.00 | 0.29 | 0.03 | 71 | 1015.0 |
| 20260904174502 | 88 | 164 | 2.6 | 7.8 | 0.00 | 0.34 | 0.03 | 72 | 1014.9 |
| 20260904173003 | 87 | 133 | 0.9 | 4.3 | 0.00 | 0.38 | 0.03 | 76 | 1014.9 |
| 20260904171504 | 86 | 128 | 1.7 | 4.3 | 0.00 | 0.41 | 0.03 | 79 | 1015.3 |
| 20260904170001 | 86 | 128 | 0.9 | 2.6 | 0.00 | 0.44 | 0.03 | 80 | 1015.3 |
| 20260904164503 | 85 | 128 | 0.9 | 2.6 | 0.00 | 0.59 | 0.03 | 81 | 1015.3 |
| 20260904163005 | 85 | 128 | 1.7 | 2.6 | 0.00 | 0.69 | 0.03 | 82 | 1015.3 |
| 20260904161459 | 85 | 128 | 0.0 | 2.6 | 0.00 | 0.69 | 0.03 | 83 | 1015.2 |
| 20260904160009 | 85 | 128 | 0.9 | 6.1 | 0.00 | 0.69 | 0.03 | 83 | 1015.1 |
| 20260904154456 | 85 | 128 | 2.6 | 7.8 | 0.00 | 0.69 | 0.03 | 84 | 1015.2 |
| 20260904152956 | 84 | 69 | 2.6 | 6.1 | 0.00 | 0.69 | 0.03 | 84 | 1014.9 |
| 20260904152148 | 85 | 31 | 1.7 | 6.1 | 0.00 | 0.69 | 0.03 | 86 | 1014.9 |
| 20260904150701 | 83 | 131 | 1.7 | 6.1 | 0.00 | 0.69 | 0.03 | 88 | 1014.9 |
| 20260904145153 | 82 | 131 | 3.5 | 6.1 | 0.00 | 0.69 | 0.03 | 91 | 1014.9 |
| 20260904143651 | 81 | 128 | 0.9 | 6.1 | 0.00 | 0.69 | 0.03 | 92 | 1014.9 |
| 20260904141454 | 80 | 128 | 2.6 | 4.3 | 0.00 | 0.69 | 0.03 | 92 | 1014.7 |
| 20260904135954 | 80 | 128 | 1.7 | 6.1 | 0.00 | 0.69 | 0.03 | 92 | 1014.6 |
| 20260904134454 | 79 | 128 | 3.5 | 7.8 | 0.00 | 0.69 | 0.03 | 92 | 1014.5 |
| 20260904132953 | 78 | 97 | 0.9 | 2.6 | 0.00 | 0.69 | 0.03 | 92 | 1014.4 |
| 20260904132202 | 78 | 97 | 0.0 | 0.0 | 0.00 | 0.69 | 0.03 | 92 | 1014.2 |
| 20260904130708 | 78 | 97 | 0.0 | 0.0 | 0.00 | 0.69 | 0.03 | 92 | 1014.3 |
| 20260904124452 | 78 | 97 | 0.0 | 2.6 | 0.00 | 0.69 | 0.03 | 92 | 1014.1 |
| 20260904122952 | 78 | 97 | 0.0 | 1.7 | 0.00 | 0.69 | 0.03 | 92 | 1013.9 |
| 20260904121452 | 77 | 97 | 0.0 | 1.7 | 0.00 | 0.69 | 0.03 | 92 | 1013.7 |
| 20260904115951 | 77 | 97 | 0.0 | 1.7 | 0.00 | 0.69 | 0.03 | 92 | 1013.5 |
| 20260904114451 | 78 | 97 | 0.0 | 1.7 | 0.00 | 0.69 | 0.03 | 92 | 1013.4 |
| 20260904113656 | 78 | 97 | 0.0 | 1.7 | 0.00 | 0.69 | 0.03 | 92 | 1013.5 |